Weather History for KCQW - October, 2013

Change the Weather History Date:

Saturday, October 5, 2013

  Actual Average (KFLO) Record (KFLO)
Temperature  
Mean Temperature 72 °F 68 °F  
Max Temperature 87 °F 79 °F 100 °F (1954)
Min Temperature 57 °F 57 °F 39 °F (1968)
Degree Days  
Heating Degree Days 0 2  
Month to date heating degree days 7  
Since 1 July heating degree days 16  
Cooling Degree Days 7 4  
Month to date cooling degree days 24  
Year to date cooling degree days 1980  
Growing Degree Days 22 (Base 50)    
Moisture  
Dew Point 61 °F    
Average Humidity 73    
Maximum Humidity 100    
Minimum Humidity 35    
Precipitation  
Precipitation 0.00 in 0.12 in 3.05 in (1964)
Month to date precipitation 0.59  
Year to date precipitation 34.74  
Sea Level Pressure  
Sea Level Pressure 30.09 in    
Wind  
Wind Speed - (North)    
Max Wind Speed -    
Max Gust Speed -    
Visibility 6 miles    
Events Fog    
T = Trace of Precipitation, MM = Missing Value Source: NWS Daily Summary

Daily Weather History Graph

Daily Weather History Graph

Search for Another Location

Airport or City:

Trip Planner

Search our weather history database for the weather conditions in past years. The results will help you decide how hot, cold, wet, or windy it might be!

Date:

Astronomy

Oct. 05, 2013 Rise Set
Actual Time 7:17 AM EDT 6:58 PM EDT
Civil Twilight 6:52 AM EDT 7:23 PM EDT
Nautical Twilight 6:23 AM EDT 7:52 PM EDT
Astronomical Twilight 5:54 AM EDT 8:21 PM EDT
Moon 7:52 AM EDT (10/5) 7:19 PM EDT (10/5)
Length of Visible Light 12h 30m
Length of Day
11h 40m
New Moon, 0% of the Moon is Illuminated
Oct 5
New Moon
Oct 11
First Quarter
Oct 18
Full
Oct 26
Last Quarter
Nov 3
New

Hourly Weather History & Observations

Time (EDT) Temp. Heat Index Dew Point Humidity Pressure Visibility Wind Dir Wind Speed Gust Speed Precip Events Conditions
12:15 AM 64.4 °F - 64.4 °F 100% 30.11 in 6.0 mi North - - N/A   Clear
12:35 AM 64.4 °F - 64.4 °F 100% 30.11 in 5.0 mi North - - N/A   Clear
12:55 AM 62.6 °F - 62.6 °F 100% 30.11 in 0.5 mi North - - N/A Fog Fog
1:15 AM 60.8 °F - 60.8 °F 100% 30.11 in 2.5 mi North - - N/A   Clear
1:35 AM 62.6 °F - 62.6 °F 100% 30.11 in 2.0 mi North - - N/A   Clear
1:55 AM 62.6 °F - 62.6 °F 100% 30.10 in 4.0 mi North - - N/A   Clear
2:15 AM 60.8 °F - 60.8 °F 100% 30.10 in 0.2 mi North - - N/A Fog Fog
2:35 AM 62.6 °F - 62.6 °F 100% 30.10 in 1.2 mi North - - N/A   Clear
2:55 AM 59.0 °F - 59.0 °F 100% 30.10 in 1.8 mi North - - N/A   Clear
3:15 AM 59.0 °F - 59.0 °F 100% 30.09 in 1.8 mi North - - N/A   Clear
3:35 AM 60.8 °F - 60.8 °F 100% 30.09 in 1.5 mi North - - N/A   Clear
3:55 AM 60.8 °F - 60.8 °F 100% 30.09 in 0.5 mi North - - N/A Fog Fog
4:15 AM 59.0 °F - 59.0 °F 100% 30.09 in 0.2 mi North - - N/A Fog Fog
4:35 AM 59.0 °F - 59.0 °F 100% 30.09 in 0.2 mi North - - N/A Fog Fog
4:55 AM 59.0 °F - 59.0 °F 100% 30.09 in 0.5 mi North - - N/A Fog Fog
5:15 AM 59.0 °F - 59.0 °F 100% 30.09 in 0.2 mi North - - N/A Fog Fog
5:35 AM 59.0 °F - 59.0 °F 100% 30.10 in 0.2 mi North - - N/A Fog Fog
5:55 AM 59.0 °F - 59.0 °F 100% 30.11 in 0.2 mi North - - N/A Fog Fog
6:15 AM 59.0 °F - 59.0 °F 100% 30.11 in 0.5 mi North - - N/A Fog Fog
6:35 AM 57.2 °F - 57.2 °F 100% 30.11 in 0.2 mi North - - N/A Fog Fog
6:55 AM 59.0 °F - 59.0 °F 100% 30.12 in 2.5 mi North - - N/A   Clear
7:15 AM 57.2 °F - 57.2 °F 100% 30.12 in 1.2 mi North - - N/A   Clear
7:35 AM 57.2 °F - 57.2 °F 100% 30.13 in 2.5 mi North - - N/A   Clear
7:55 AM 57.2 °F - 57.2 °F 100% 30.13 in 1.2 mi North - - N/A   Clear
8:15 AM 60.8 °F - 60.8 °F 100% 30.13 in 3.0 mi North - - N/A   Clear
8:35 AM 64.4 °F - 64.4 °F 100% 30.13 in 4.0 mi North - - N/A   Clear
8:55 AM 66.2 °F - 64.4 °F 94% 30.13 in 5.0 mi North - - N/A   Clear
9:15 AM 68.0 °F - 64.4 °F 88% 30.14 in 5.0 mi North - - N/A   Clear
9:35 AM 69.8 °F - 64.4 °F 83% 30.14 in 6.0 mi North - - N/A   Haze
9:55 AM 73.4 °F - 66.2 °F 78% 30.14 in 6.0 mi North - - N/A   Haze
10:15 AM 75.2 °F - 66.2 °F 73% 30.14 in 7.0 mi North - - N/A   Clear
10:35 AM 77.0 °F - 66.2 °F 69% 30.13 in 7.0 mi North - - N/A   Clear
10:55 AM 80.6 °F 82.3 °F 64.4 °F 58% 30.13 in 7.0 mi North - - N/A   Clear
11:15 AM 80.6 °F 82.3 °F 64.4 °F 58% 30.13 in 7.0 mi North - - N/A   Clear
11:35 AM 82.4 °F 83.4 °F 62.6 °F 51% 30.12 in 7.0 mi North - - N/A   Clear
11:55 AM 82.4 °F 83.4 °F 62.6 °F 51% 30.12 in 8.0 mi North - - N/A   Clear
12:15 PM 84.2 °F 85.0 °F 62.6 °F 48% 30.11 in 8.0 mi North - - N/A   Clear
12:35 PM 84.2 °F 84.4 °F 60.8 °F 45% 30.11 in 8.0 mi North - - N/A   Clear
12:55 PM 86.0 °F 85.4 °F 59.0 °F 40% 30.11 in 8.0 mi North - - N/A   Clear
1:15 PM 86.0 °F 86.1 °F 60.8 °F 43% 30.10 in 8.0 mi North - - N/A   Partly Cloudy
1:35 PM 84.2 °F 84.4 °F 60.8 °F 45% 30.09 in 7.0 mi North - - N/A   Clear
1:55 PM 86.0 °F 85.4 °F 59.0 °F 40% 30.08 in 8.0 mi North - - N/A   Partly Cloudy
2:15 PM 86.0 °F 85.4 °F 59.0 °F 40% 30.07 in 8.0 mi North - - N/A   Scattered Clouds
2:35 PM 87.8 °F 87.1 °F 59.0 °F 38% 30.07 in 7.0 mi North - - N/A   Scattered Clouds
2:55 PM 87.8 °F 86.5 °F 57.2 °F 35% 30.07 in 7.0 mi North - - N/A   Scattered Clouds
3:15 PM 86.0 °F 84.9 °F 57.2 °F 37% 30.06 in 7.0 mi North - - N/A   Partly Cloudy
3:35 PM 87.8 °F 86.5 °F 57.2 °F 35% 30.05 in 7.0 mi North - - N/A   Clear
3:55 PM 87.8 °F 87.1 °F 59.0 °F 38% 30.05 in 8.0 mi North - - N/A   Clear
4:15 PM 87.8 °F 86.5 °F 57.2 °F 35% 30.05 in 7.0 mi North - - N/A   Clear
4:35 PM 87.8 °F 86.5 °F 57.2 °F 35% 30.04 in 7.0 mi North - - N/A   Clear
4:55 PM 87.8 °F 86.5 °F 57.2 °F 35% 30.04 in 8.0 mi North - - N/A   Clear
5:15 PM 86.0 °F 84.9 °F 57.2 °F 37% 30.04 in 7.0 mi North - - N/A   Clear
5:35 PM 86.0 °F 85.4 °F 59.0 °F 40% 30.04 in 7.0 mi North - - N/A   Clear
5:55 PM 84.2 °F 83.8 °F 59.0 °F 42% 30.04 in 8.0 mi North - - N/A   Clear
6:15 PM 84.2 °F 83.8 °F 59.0 °F 42% 30.04 in 8.0 mi North - - N/A   Clear
6:35 PM 82.4 °F 82.5 °F 59.0 °F 45% 30.04 in 8.0 mi North - - N/A   Clear
6:55 PM 80.6 °F 81.1 °F 59.0 °F 48% 30.04 in 7.0 mi North - - N/A   Clear
7:15 PM 77.0 °F - 60.8 °F 57% 30.04 in 7.0 mi North - - N/A   Clear
7:35 PM 75.2 °F - 60.8 °F 61% 30.04 in 9.0 mi North - - N/A   Clear
7:55 PM 73.4 °F - 60.8 °F 65% 30.04 in 9.0 mi North - - N/A   Clear
8:15 PM 73.4 °F - 60.8 °F 65% 30.05 in 9.0 mi North - - N/A   Clear
8:35 PM 71.6 °F - 60.8 °F 69% 30.05 in 9.0 mi North - - N/A   Clear
8:55 PM 71.6 °F - 60.8 °F 69% 30.06 in 9.0 mi North - - N/A   Clear
9:15 PM 71.6 °F - 62.6 °F 73% 30.07 in 9.0 mi North - - N/A   Clear
9:35 PM 73.4 °F - 62.6 °F 69% 30.08 in 8.0 mi North - - N/A   Clear
9:55 PM 73.4 °F - 62.6 °F 69% 30.08 in 10.0 mi North - - N/A   Clear
10:15 PM 71.6 °F - 62.6 °F 73% 30.08 in 9.0 mi North - - N/A   Clear
10:35 PM 71.6 °F - 62.6 °F 73% 30.08 in 9.0 mi North - - N/A   Clear
10:55 PM 69.8 °F - 62.6 °F 78% 30.08 in 9.0 mi North - - N/A   Clear
11:15 PM 66.2 °F - 62.6 °F 88% 30.08 in 8.0 mi North - - N/A   Clear
11:35 PM 64.4 °F - 62.6 °F 94% 30.08 in 7.0 mi North - - N/A   Clear
11:55 PM 64.4 °F - 62.6 °F 94% 30.07 in 7.0 mi North - - N/A   Clear